Regional Weather Roundup
Issued by NWS New Orleans/Baton Rouge, LA

Home | Current Version | Previous Version | Text Only | Print | Product List | Glossary Off
Versions: 1 2 3 4 5 6 7 8 9 10 11 12 13 14 15 16 17 18 19 20 21 22 23 24 25 26 27 28 29 30 31 32 33 34 35 36 37 38 39 40 41 42 43 44 45 46 47 48 49 50

464
ASUS44 KLIX 281835
RWRLIX
NEW ORLEANS REGIONAL WEATHER ROUNDUP
NATIONAL WEATHER SERVICE NEW ORLEANS LA
1200 PM CST FRI NOV 28 2014

NOTE: "FAIR" INDICATES FEW OR NO CLOUDS BELOW 12,000 FEET WITH NO
      SIGNIFICANT WEATHER AND/OR OBSTRUCTIONS TO VISIBILITY.
      SKY/WX - SKY CONDITION AND SIGNIFICANT WEATHER.
      TMP - AIR TEMPERATURE.     DP    - DEWPOINT TEMPERATURE.
      RH  - RELATIVE HUMIDITY.   PRES  - PRESSURE.
      HI  - HEAT INDEX.          WCI   - WIND CHILL INDEX.

*  THESE STATIONS ARE NOT NWS OR FAA STATIONS AND ARE NOT UNDER
   NWS QUALITY CONTROL.

LAZ038-040-048-061>063-065>067-069-281900-
SOUTHEAST LOUISIANA

CITY           SKY/WX    TMP DP  RH WIND       PRES   REMARKS
N.O. AUDUBON     N/A     58  41  51 MISG        N/A
6HR MIN TEMP:  42; 6HR MAX TEMP:  59;

N.O. INTL ARPT MOSUNNY   58  38  47 VRB6      30.38F
6HR MIN TEMP:  43; 6HR MAX TEMP:  58;

N.O. LAKEFRONT SUNNY     55  39  54 E10       30.39F
6HR MIN TEMP:  45; 6HR MAX TEMP:  55;

N.O. DOWNTOWN*   N/A     55  39  54 NE5       30.37F
6HR MIN TEMP:  43; 6HR MAX TEMP:  55;

SLIDELL        SUNNY     56  29  35 S7        30.38F
6HR MIN TEMP:  31; 6HR MAX TEMP:  56;

BATON ROUGE    SUNNY     58  31  35 S9        30.37F
6HR MIN TEMP:  33; 6HR MAX TEMP:  58;

BOOTHVILLE     SUNNY     58  47  66 NE9       30.38F
6HR MIN TEMP:  50; 6HR MAX TEMP:  58;

BELLE CHASSE   SUNNY     58  38  47 SE8       30.38F
6HR MIN TEMP:  35; 6HR MAX TEMP:  59;

BOGALUSA*        N/A     58  27  30 CALM      30.39F
6HR MIN TEMP:  31; 6HR MAX TEMP:  57;

NEW ROADS*       N/A     58  31  36 SE8       30.35F
6HR MIN TEMP:  36; 6HR MAX TEMP:  57;

GONZALES*        N/A     59  34  40 E5        30.35F
6HR MIN TEMP:  33; 6HR MAX TEMP:  58;

HAMMOND*       SUNNY     59  23  25 E6        30.38F
HOUMA*         SUNNY     61  43  51 NE3       30.37F
PORT FOURCHON* CLEAR     59  46  63 E12       30.38F

$$

MSZ070-080>082-281900-
SOUTHERN MISSISSIPPI

CITY           SKY/WX    TMP DP  RH WIND       PRES   REMARKS
MCCOMB         SUNNY     54  27  35 E6        30.37F
6HR MIN TEMP:  31; 6HR MAX TEMP:  54;

GULFPORT       SUNNY     54  29  38 NE5       30.38F
6HR MIN TEMP:  32; 6HR MAX TEMP:  54;

BILOXI         SUNNY     54  29  37 VRB6      30.38F
6HR MIN TEMP:  34; 6HR MAX TEMP:  55;

PASCAGOULA     SUNNY     54  28  36 CALM      30.38F
6HR MIN TEMP:  27; 6HR MAX TEMP:  56;

STENNIS ARPT*  SUNNY     54  18  24 SE6       30.39F

$$

COASTAL OBSERVATIONS
LAKE AND NEARSHORE STATIONS

STATION/POSITION TIME  TEMP    WIND        PRES    WAVE
                       AIR SEA DIR/SP/G            HT/PER
                 (UTC) (F)     (DEG/KT/KT) (MB)    (FT/S)
PASCAGOULA       1800   55      90/  3/  4 1028.0
WAVELAND YACHT   1800   48     160/  9/ 11 1027.8
GRAND ISLE       1800   57 58   80/ 10/ 14 1028.4
SOUTHWEST PASS   1800   67                 1027.8
NEW CANAL        1800   55 54  120/  2/  6 1028.7
SHELL BEACH      1800   53 51   60/ 10/ 12 1028.2

OFFSHORE STATIONS

STATION/POSITION TIME  TEMP    WIND        PRES    WAVE
                       AIR SEA DIR/SP/G            HT/PER
                 (UTC) (F)     (DEG/KT/KT) (MB)    (FT/S)
64 S DAUPHIN ISL 1735   57 72   70/ 12/ 16 1028.8    3/ 6

$$




USA.gov is the U.S. government's official web portal to all federal, state and local government web resources and services.